Content
SEND FEEDBACK

Daily
Averages
Monthly
Summary
Switzerland

ZÜRICH, SWITZERLAND


Home > Europe > Switzerland
Elevation: 1867 feet     Latitude: 47 23N     Longitude: 008 34E

WEATHER
 
SELECT A DAY
Number of Records: 287,430;   Date Range: 7/1/96 - 8/12/14
 
SHARE

PRINT THIS DATA

[ ← Previous Day ]
WEATHER ALMANAC - AUGUST 28, 2013
[ Next Day → ]
[ °C ]   °F
Weather ElementAverageHighLow
Temperature59.6 °F64.4 °F (5:50 pm)57.2 °F (1:50 am)
Dewpoint56.1 °F57.2 °F (10:50 am)53.6 °F (4:50 pm)
Humidity88.5 %94 % (1:50 am)72 % (4:50 pm)
Barometer30.08 in30.15 in (9:50 pm)30.01 in (1:50 am)
Wind Speed1.2 mph3.5 mph (2:50 am)
Weather ElementAverage
Visibility5 mi
Wind DirectionENE (52.2 °)

Weather ElementTotal
Precipitation---
Heating Degree Days4.2 (Base 65)
Growing Degree Days10.8 (Base 50)
Averaged from 23 records on August 28, 2013
WEATHER CONDITIONS BREAKOUT
WIND DIRECTION BREAKOUT
WEATHER BY HOUR - AUGUST 28, 2013
[ °C ]   °F
Local TimeTemperatureDewpointHumidityBarometerVisibilityWind DirectionWind SpeedGust SpeedPrecipitationEventsConditions
1:50 AM57.2 °F55.4 °F94 %30.01 in6.2 miESE (120°)2.3 mphRainLight Rain
2:50 AM57.2 °F55.4 °F94 %30.01 in4.3 miWNW (300°)3.5 mphRainHeavy Rain
3:50 AM57.2 °F55.4 °F94 %30.01 in6.2 miCalmOvercast
4:50 AM57.2 °F55.4 °F94 %30.01 in5.0 miCalmOvercast
5:50 AM57.2 °F55.4 °F94 %30.01 in6.2 miWNW (290°)1.2 mphOvercast
6:50 AM57.2 °F55.4 °F94 %30.04 in3.1 miCalmRainLight Rain
7:50 AM57.2 °F55.4 °F94 %30.04 in5.6 miCalmRainLight Rain
8:50 AM57.2 °F55.4 °F94 %30.04 in4.3 miCalmOvercast
9:50 AM57.2 °F55.4 °F94 %30.06 in5.0 miVariable2.3 mphRainLight Rain
10:50 AM59.0 °F57.2 °F94 %30.06 in5.0 miVariable2.3 mphOvercast
11:50 AM60.8 °F57.2 °F88 %30.09 in6.2 miNNW (340°)3.5 mphMostly Cloudy
12:50 PM60.8 °F57.2 °F88 %30.09 in5.0 miCalmMostly Cloudy
1:50 PM62.6 °F57.2 °F82 %30.09 in5.0 miVariable1.2 mphRainRain
2:50 PM60.8 °F55.4 °F82 %30.09 in5.6 miSSE (150°)3.5 mphRainLight Rain Showers
3:50 PM62.6 °F55.4 °F77 %30.09 in6.2 miVariable2.3 mphMostly Cloudy
4:50 PM62.6 °F53.6 °F72 %30.09 in6.2 miVariable1.2 mphMostly Cloudy
5:50 PM64.4 °F55.4 °F73 %30.09 in6.2 miCalmMostly Cloudy
6:50 PM62.6 °F57.2 °F82 %30.12 in6.2 miVariable1.2 mphRainLight Rain
7:50 PM60.8 °F57.2 °F88 %30.12 in4.3 miCalmRainLight Rain Showers
8:50 PM60.8 °F57.2 °F88 %30.12 in3.7 miCalmOvercast
9:50 PM60.8 °F57.2 °F88 %30.15 in3.1 miCalmOvercast
10:50 PM59.0 °F57.2 °F94 %30.15 in3.1 miVariable2.3 mphLight Drizzle
11:50 PM59.0 °F57.2 °F94 %30.15 in3.1 miCalmOvercast
Hourly data recorded from LSMD, located miles away from Zürich, Switzerland







STORIES FROM OUR PARTNERS